sat.trackr.live / text

‹ back to catalog

STARLINK-2252

NORAD 48595 · 2021-041AU

PAYLOAD ACTIVE UNKNOWN

§ Identity

Operator
Country
US
Launch date
2021-05-15
Launch site
AFETR
Launch vehicle
Mass (kg)
RCS (m²)

Purposes: comms

External: N2YO · Heavens-Above · Gunter

§ Orbital elements

Epoch: 2026-05-25T00:24:39.230208Z

Period
94.01 min
Inclination
53.1598°
Eccentricity
0.0001226
Mean motion
15.31711290 rev/d
Perigee alt
469.9 km
Apogee alt
471.5 km
Semi-major
6,848.8 km
B*
7.2749e-5
RAAN
153.9027°
Arg perigee
78.9599°
Mean anomaly
281.1540°
Rev number
27,791

§ Raw data

STARLINK-22521 48595U 21041AU  26145.01712072  .00001894  00000+0  72749-4 0  99912 48595  53.1598 153.9027 0001226  78.9599 281.1540 15.31711290277916

JSON: /api/v1/satellites/48595 · /tle

For live sub-satellite position, see the globe view (requires WebGL).

§ Visibility from observer

Set your observer location to see the next 7 days of passes ≥ 10°. The values pass through the URL so the page stays shareable.

No JS? Fill the form by hand. The geolocation button needs JavaScript.